CW0230 Weather Reports


Display with metric or nautical units.
time (UTC)temp
F
wind
direction
speed
MPH
gust
MPH
rain 1hr
in
rain 24hr
in
rain mn
in
humidity
%
barometer
mb
20260905222517 59 159 0.0 1.0 0.00 0.00 0.00 85 1025.3
20260905222017 59 159 0.0 1.0 0.00 0.00 0.00 85 1025.3
20260905221517 59 159 0.0 0.0 0.00 0.00 0.00 85 1025.3
20260905221017 59 159 0.0 0.0 0.00 0.00 0.00 84 1025.3
20260905220017 59 159 0.0 2.0 0.00 0.00 0.00 84 1025.4
20260905215018 59 159 0.0 0.0 0.00 0.00 0.00 83 1025.3
20260905213518 60 159 0.0 0.0 0.00 0.00 0.00 82 1025.5
20260905211517 60 159 0.0 1.0 0.00 0.00 0.00 81 1025.5
20260905210517 60 159 0.0 2.0 0.00 0.00 0.00 81 1025.4
20260905202517 61 282 0.0 0.0 0.00 0.00 0.00 77 1025.2
20260905202017 61 282 0.0 0.0 0.00 0.00 0.00 76 1025.2
20260905201017 61 282 0.0 0.0 0.00 0.00 0.00 75 1025.4
20260905200018 62 282 0.0 0.0 0.00 0.00 0.00 73 1025.4
20260905192517 63 282 1.0 2.0 0.00 0.00 0.00 72 1025.3
20260905192017 63 277 0.0 2.0 0.00 0.00 0.00 72 1025.1
20260905191517 63 277 0.0 2.0 0.00 0.00 0.00 71 1025.1
20260905191018 64 277 1.0 2.0 0.00 0.00 0.00 71 1025.0
20260905190017 64 255 1.0 3.0 0.00 0.00 0.00 72 1025.1
20260905185018 64 225 2.0 7.0 0.00 0.00 0.00 73 1025.2
20260905183518 65 216 3.0 8.0 0.00 0.00 0.00 72 1025.1
20260905182517 65 194 2.0 5.0 0.00 0.00 0.00 71 1025.1
20260905181017 66 192 2.0 7.0 0.00 0.00 0.00 69 1025.0
20260905174518 67 201 3.0 6.0 0.00 0.00 0.00 66 1025.0
20260905173017 68 194 4.0 9.0 0.00 0.00 0.00 64 1025.0
20260905172518 68 213 4.0 8.0 0.00 0.00 0.00 64 1024.9
20260905171018 69 202 3.0 9.0 0.00 0.00 0.00 62 1024.8
20260905170518 69 214 4.0 9.0 0.00 0.00 0.00 62 1024.8
20260905170017 69 210 3.0 7.0 0.00 0.00 0.00 62 1024.8
20260905165517 69 188 4.0 7.0 0.00 0.00 0.00 61 1024.7
20260905164518 70 201 2.0 8.0 0.00 0.00 0.00 60 1024.5
20260905163018 70 233 5.0 8.0 0.00 0.00 0.00 59 1024.5
20260905161018 70 5 2.0 6.0 0.00 0.00 0.00 60 1024.6
20260905155017 71 202 3.0 6.0 0.00 0.00 0.00 58 1024.6
20260905153517 71 326 5.0 8.0 0.00 0.00 0.00 57 1024.6
20260905153018 71 331 3.0 8.0 0.00 0.00 0.00 56 1024.6
20260905152517 72 271 4.0 7.0 0.00 0.00 0.00 56 1024.6
20260905151517 72 298 3.0 8.0 0.00 0.00 0.00 56 1024.7
20260905145518 72 306 5.0 8.0 0.00 0.00 0.00 56 1024.9
20260905145017 72 278 4.0 7.0 0.00 0.00 0.00 55 1024.9
20260905144017 72 269 1.0 8.0 0.00 0.00 0.00 55 1024.9
20260905141518 72 192 4.0 8.0 0.00 0.00 0.00 55 1025.1
20260905141018 72 228 1.0 7.0 0.00 0.00 0.00 55 1025.1
20260905135517 73 281 3.0 7.0 0.00 0.00 0.00 54 1025.3
20260905135017 73 317 4.0 7.0 0.00 0.00 0.00 55 1025.3
20260905134518 72 330 3.0 7.0 0.00 0.00 0.00 55 1025.3
20260905134017 73 212 4.0 7.0 0.00 0.00 0.00 54 1025.3
20260905133018 72 327 1.0 8.0 0.00 0.00 0.00 55 1025.3
20260905130517 72 320 2.0 7.0 0.00 0.00 0.00 56 1025.3
20260905123518 70 336 4.0 7.0 0.00 0.00 0.00 58 1025.2
20260905123018 70 327 4.0 7.0 0.00 0.00 0.00 59 1025.2
20260905120518 69 303 3.0 8.0 0.00 0.00 0.00 62 1025.3
20260905115018 69 319 3.0 6.0 0.00 0.00 0.00 62 1025.3
20260905114517 68 228 1.0 5.0 0.00 0.00 0.00 62 1025.3
20260905114017 68 314 2.0 6.0 0.00 0.00 0.00 65 1025.2
20260905113518 67 279 0.0 6.0 0.00 0.00 0.00 64 1025.2
20260905113017 67 289 2.0 6.0 0.00 0.00 0.00 66 1025.2
20260905111017 66 322 2.0 5.0 0.00 0.00 0.00 67 1025.3
20260905110018 66 257 2.0 6.0 0.00 0.00 0.00 69 1025.4
20260905104518 65 290 1.0 3.0 0.00 0.00 0.00 71 1025.4
20260905104017 64 240 1.0 6.0 0.00 0.00 0.00 72 1025.4
20260905101517 64 302 1.0 3.0 0.00 0.00 0.00 71 1025.5
20260905101018 64 322 1.0 3.0 0.00 0.00 0.00 71 1025.6
20260905100517 64 245 1.0 6.0 0.00 0.00 0.00 71 1025.5
20260905095018 64 280 2.0 5.0 0.00 0.00 0.00 70 1025.4
20260905094517 64 242 2.0 7.0 0.00 0.00 0.00 70 1025.2
20260905094018 64 220 2.0 7.0 0.00 0.00 0.00 70 1025.1
20260905093517 65 298 2.0 7.0 0.00 0.00 0.00 70 1025.1
20260905092518 65 220 2.0 6.0 0.00 0.00 0.00 69 1024.9
20260905092017 65 255 3.0 6.0 0.00 0.00 0.00 69 1024.9
20260905091017 65 225 2.0 5.0 0.00 0.00 0.00 70 1025.0
20260905090518 65 277 2.0 5.0 0.00 0.00 0.00 70 1025.0
20260905090018 64 350 2.0 3.0 0.00 0.00 0.00 71 1024.9
20260905085518 64 327 2.0 3.0 0.00 0.00 0.00 73 1024.9
20260905084517 62 208 1.0 3.0 0.00 0.00 0.00 74 1024.8
20260905084017 62 239 1.0 3.0 0.00 0.00 0.00 75 1024.8
20260905083018 62 222 1.0 3.0 0.00 0.00 0.00 76 1024.6
20260905082517 62 227 1.0 3.0 0.00 0.00 0.00 76 1024.6
20260905082017 61 325 1.0 3.0 0.00 0.00 0.00 78 1024.5
20260905081517 61 220 2.0 3.0 0.00 0.00 0.00 78 1024.5
20260905080518 61 213 2.0 3.0 0.00 0.00 0.00 79 1024.4
20260905075518 60 231 1.0 3.0 0.00 0.00 0.00 80 1024.3
20260905075018 60 302 0.0 3.0 0.00 0.00 0.00 80 1024.2
20260905074517 60 240 1.0 3.0 0.00 0.00 0.00 80 1024.2
20260905073017 59 257 2.0 5.0 0.00 0.00 0.00 82 1024.1
20260905072517 59 208 2.0 5.0 0.00 0.00 0.00 84 1024.1
20260905072018 58 229 3.0 5.0 0.00 0.00 0.00 85 1024.1
20260905071518 58 191 1.0 3.0 0.00 0.00 0.00 87 1024.1
20260905071018 58 220 0.0 2.0 0.00 0.00 0.00 88 1024.0
20260905070517 58 220 1.0 2.0 0.00 0.00 0.00 88 1023.9
20260905070018 57 220 0.0 2.0 0.00 0.00 0.00 88 1024.0
20260905065018 57 220 0.0 0.0 0.00 0.01 0.00 89 1023.8
20260905064517 57 220 0.0 0.0 0.00 0.01 0.00 89 1023.7
20260905063517 56 220 0.0 0.0 0.00 0.01 0.00 89 1023.5
20260905063017 56 220 0.0 0.0 0.00 0.02 0.00 89 1023.6
20260905062517 56 220 0.0 0.0 0.00 0.06 0.00 89 1023.5
20260905061518 56 220 0.0 1.0 0.00 0.06 0.00 89 1023.5
20260905060517 56 220 1.0 3.0 0.00 0.06 0.00 89 1023.4
20260905054018 56 209 1.0 2.0 0.00 0.06 0.00 90 1023.2
20260905052017 55 214 1.0 3.0 0.00 0.06 0.00 90 1023.1
20260905051517 55 214 1.0 3.0 0.00 0.06 0.00 90 1023.0
20260905051017 55 227 1.0 3.0 0.00 0.06 0.00 90 1023.0
20260905050517 55 217 1.0 3.0 0.00 0.06 0.00 91 1022.9
20260905050018 55 231 2.0 3.0 0.00 0.06 0.00 91 1022.8
20260905045017 55 202 2.0 3.0 0.00 0.06 0.00 91 1022.8
20260905044018 55 209 0.0 2.0 0.00 0.06 0.00 92 1022.6
20260905043017 55 92 0.0 0.0 0.00 0.06 0.00 91 1022.6
20260905042017 55 92 0.0 0.0 0.00 0.06 0.00 91 1022.5
20260905041517 55 92 0.0 0.0 0.00 0.06 0.00 91 1022.4
20260905040517 55 92 0.0 1.0 0.00 0.06 0.00 90 1022.3
20260905040017 55 92 0.0 1.0 0.00 0.06 0.00 89 1022.2
20260905034517 55 92 0.0 2.0 0.00 0.06 0.00 89 1022.0
20260905034018 55 100 0.0 1.0 0.00 0.06 0.00 89 1021.9
20260905033518 55 100 0.0 2.0 0.00 0.06 0.00 89 1021.8
20260905031518 56 201 1.0 3.0 0.00 0.06 0.00 89 1021.5
20260905031017 56 213 2.0 5.0 0.00 0.06 0.00 89 1021.6
20260905030517 56 213 2.0 5.0 0.00 0.06 0.00 89 1021.6
20260905030017 56 209 3.0 5.0 0.00 0.06 0.00 89 1021.4
20260905025517 56 210 2.0 6.0 0.00 0.06 0.00 89 1021.3
20260905025017 56 221 3.0 6.0 0.00 0.06 0.00 89 1021.4
20260905024017 56 202 2.0 5.0 0.00 0.06 0.00 89 1021.4
20260905023017 56 220 3.0 7.0 0.00 0.06 0.00 89 1021.3
20260905021017 55 200 3.0 6.0 0.00 0.06 0.00 90 1021.1
20260905015018 55 214 2.0 6.0 0.00 0.06 0.00 89 1021.2
20260905014517 55 201 3.0 6.0 0.00 0.06 0.00 89 1021.1
20260905014018 55 214 1.0 6.0 0.00 0.06 0.00 89 1021.1
20260905013517 55 215 2.0 6.0 0.00 0.06 0.00 89 1021.1
20260905013017 55 199 1.0 5.0 0.00 0.06 0.00 89 1021.1
20260905012518 55 216 2.0 6.0 0.00 0.06 0.00 89 1021.0
20260905011518 55 213 2.0 6.0 0.00 0.06 0.00 88 1021.0
20260905011017 55 217 3.0 6.0 0.00 0.06 0.00 88 1021.0
20260905010017 55 213 2.0 5.0 0.00 0.06 0.00 88 1021.0
20260905005517 56 225 2.0 5.0 0.00 0.06 0.00 88 1021.0
20260905005018 56 209 2.0 5.0 0.00 0.06 0.00 88 1021.1
20260905004517 56 230 2.0 5.0 0.00 0.06 0.00 88 1021.0
20260905004018 56 209 2.0 5.0 0.00 0.06 0.00 88 1021.0
20260905003017 56 227 2.0 5.0 0.00 0.06 0.00 88 1021.0
20260905002517 56 214 1.0 5.0 0.00 0.06 0.00 88 1021.1
20260905002018 56 220 2.0 6.0 0.00 0.06 0.00 88 1021.1
20260904235518 55 222 2.0 6.0 0.00 0.06 0.00 89 1020.9
20260904234517 55 215 2.0 3.0 0.00 0.06 0.00 88 1020.8
20260904233517 56 195 1.0 3.0 0.00 0.06 0.00 88 1020.8
20260904233018 56 190 1.0 3.0 0.00 0.06 0.00 88 1020.7
20260904232017 56 223 1.0 3.0 0.00 0.06 0.00 88 1020.7
20260904231018 56 216 1.0 3.0 0.00 0.06 0.00 87 1020.7
20260904225517 56 222 2.0 5.0 0.00 0.06 0.06 88 1020.6
20260904224517 56 220 2.0 5.0 0.00 0.06 0.06 88 1020.6
20260904224017 56 211 2.0 5.0 0.00 0.06 0.06 88 1020.6